THOR ABLESTAR DEB, 234

Orbit data source: Space-Track

THOR ABLESTAR DEB, 234 is space debris in LEO originally from a launch on Thu, 29 Jun 1961 UTC launched from the Air Force Eastern Test Range (AFETR). Debris objects in space refer to the collection of defunct objects orbiting the Earth. Examples of debris include non-operational satellites, rocket bodies, and fragments generated from explosions, collisions, or faulty payload assembly.

Loading next visibility...
Identifier
234, 1961-015BS
Orbit
LEO
Country
Flag of USUS
Related business
Manufacturer
Unknown
Mission
Spacecraft
Bus & Motor
Unknown
Mass
Unknown
Launch date (UTC)
1961-06-29 (64 years ago)
Launch vehicle
Unknown
Launch site
Air Force Eastern Test Range (AFETR)
Object type
Payload
Rocket body
Debris
Shape & HBR
Unknown
Radar Cross Section
Small (<0.1 m²)

Expand to show TLE details & history
Last TLE update: 1 day ago

TLE from 1 day ago
0 THOR ABLESTAR DEB
1 00234U 61015BS  25260.99397813  .00000283  00000-0  22409-3 0  9999
2 00234  66.8747 118.4827 0073613 322.0724  37.5189 14.03859858273220
Epoch: 2025-09-17T23:51Z
TLE epoch observation values (Epoch: 2025-09-17T23:51:19.71Z)
Latitude
-0.00005°
Longitude
123.4886°
Altitude
840.317 km
Speed
7.455 km/s
True Right ascension
07h 53m 55s
True Declination
0° 00' 00"
Sunlit
Object was in daylight at epoch
Visualization orbit readout
Latitude
Unknown
Longitude
Unknown
Altitude
Unknown
Speed
Unknown
Apparent Right ascension
Unknown
Apparent Declination
Unknown
Sunlit
N/A
Visualization observer readout
Local Sidereal Time
20:38:23
Azimuth
Unknown
Elevation
Unknown
Doppler factor
Unknown
Orbital elements
Apogee altitude
932.255 km
Perigee altitude
825.414 km
Semi-major axis
7,256.971 km
Eccentricity
0.00736
Inclination
66.8747°
RAAN
118.4827°
Arg. of periapsis
322.0724°
True anomaly
38.03641°
Mean anomaly
37.5189°
Eccentric anomaly
37.77727°
Mean motion
3.51083 °/min
Orbital period
102.54 mins
BSTAR
0.00022409
Loading maneuver chart data...
Computing Atmospheric mass density...

Documentation

Showing up to 5 results
|